Starlink 31796

operational
NORAD ID: 59646 Int'l Des: 2024-082 Owner: SPXS Country: US Constellation: starlink
LEOCIRCULAR

关于 Starlink 31796

正在加载描述...

实时位置

正在加载3D地球...

即将过境

高度历史

Altitude vs Time

uPlot chart will show altitude changes over time

两行轨道根数

1 59646U 24082R 25259.11548291 .00000943 00000-0 43771-4 0 9992
2 59646 43.0009 45.6610 0001012 265.9387 94.1349 15.27577291 78274
Epoch: Sep 16, 2025 • Age: 9 hours

当前状态

高度 492.2 km
速度 7.62 km/s
星下点 -34.34°S, 178.12°W
发射日期 May 3, 2024
运行时间 1.3 years
类型 internet

技术详情

分类 Payload
质量 730.00 kg
干质量 700.00 kg
总质量 730.00 kg
长度 0.30 m
直径 4.10 m
跨度 29.00 m
形状 Box + pan
制造商 SPXS
平台类型 Starlink V2M
阶段状态 In Orbit
所有者/国家 SPXS/US

大型星座

Loading constellations...